N351GT KMYF-

Flight info

Callsign N351GT
Flight time N/A
Altitude VFR
Route
Aircraft C172/L-VGD/C

Departure

Time 2026-04-26 23:47
Airport Montgomery-Gibbs Executive Airport (KMYF)

Arrival

Time N/A
Airport -
Time Latitude Longitude Altitude Speed Heading
2026-04-26 23:37 32.81123 -117.13828 424 ft 0 kts 359°
2026-04-26 23:37 32.81134 -117.13818 423 ft 9 kts 71°
2026-04-26 23:38 32.81187 -117.13781 420 ft 9 kts 25°
2026-04-26 23:38 32.81248 -117.13748 421 ft 11 kts 23°
2026-04-26 23:38 32.81283 -117.13690 421 ft 10 kts 117°
2026-04-26 23:38 32.81256 -117.13622 422 ft 10 kts 115°
2026-04-26 23:39 32.81212 -117.13511 422 ft 18 kts 115°
2026-04-26 23:39 32.81160 -117.13392 421 ft 15 kts 120°
2026-04-26 23:39 32.81113 -117.13293 423 ft 11 kts 104°
2026-04-26 23:39 32.81148 -117.13213 423 ft 13 kts 58°
2026-04-26 23:40 32.81208 -117.13145 415 ft 6 kts 26°
2026-04-26 23:40 32.81214 -117.13142 421 ft 0 kts 24°
2026-04-26 23:45 32.81228 -117.13134 417 ft 9 kts 26°
2026-04-26 23:45 32.81289 -117.13129 421 ft 10 kts 301°
2026-04-26 23:46 32.81295 -117.13145 421 ft 1 kts 294°
2026-04-26 23:46 32.81378 -117.13357 415 ft 52 kts 294°
2026-04-26 23:46 32.81547 -117.13821 559 ft 66 kts 296°
2026-04-26 23:46 32.81744 -117.14348 769 ft 71 kts 297°
2026-04-26 23:47 32.81951 -117.14854 1071 ft 66 kts 297°
2026-04-26 23:47 32.82204 -117.15293 1335 ft 65 kts 305°
2026-04-26 23:47 32.82553 -117.15666 1544 ft 72 kts 313°
2026-04-26 23:47 32.82868 -117.16107 1765 ft 70 kts 288°
2026-04-26 23:48 32.83052 -117.16642 2049 ft 68 kts 283°
2026-04-26 23:48 32.83111 -117.17192 2370 ft 68 kts 272°
2026-04-26 23:48 32.83096 -117.17777 2655 ft 75 kts 265°
2026-04-26 23:48 32.83111 -117.18435 2873 ft 83 kts 282°
2026-04-26 23:49 32.83274 -117.19101 2977 ft 84 kts 286°
2026-04-26 23:49 32.83446 -117.19763 3060 ft 84 kts 287°
2026-04-26 23:49 32.83611 -117.20414 3145 ft 82 kts 285°
2026-04-26 23:49 32.83789 -117.21069 3156 ft 86 kts 290°
2026-04-26 23:50 32.84047 -117.21710 3225 ft 86 kts 295°
2026-04-26 23:50 32.84331 -117.22377 3200 ft 93 kts 290°
2026-04-26 23:50 32.84553 -117.23087 3105 ft 91 kts 289°
2026-04-26 23:50 32.84730 -117.23787 2977 ft 86 kts 280°
2026-04-26 23:51 32.84776 -117.24508 2751 ft 90 kts 274°
2026-04-26 23:51 32.84864 -117.25220 2635 ft 86 kts 282°
2026-04-26 23:51 32.84978 -117.25898 2563 ft 81 kts 270°
2026-04-26 23:51 32.84942 -117.26561 2503 ft 80 kts 268°
2026-04-26 23:52 32.84898 -117.27217 2465 ft 79 kts 266°
2026-04-26 23:52 32.84856 -117.27873 2380 ft 80 kts 281°
2026-04-26 23:52 32.85129 -117.28440 2223 ft 80 kts 299°
2026-04-26 23:52 32.85313 -117.29067 1981 ft 81 kts 288°
2026-04-26 23:53 32.85496 -117.29682 1767 ft 77 kts 289°
2026-04-26 23:53 32.85697 -117.30247 1583 ft 73 kts 296°
2026-04-26 23:53 32.86097 -117.30626 1474 ft 78 kts 335°
2026-04-26 23:53 32.86639 -117.30572 1399 ft 82 kts 17°
2026-04-26 23:54 32.87079 -117.30115 1321 ft 89 kts 56°
2026-04-26 23:54 32.87176 -117.29393 1247 ft 93 kts 99°
2026-04-26 23:54 32.86896 -117.28707 1183 ft 93 kts 140°
2026-04-26 23:54 32.86293 -117.28470 998 ft 96 kts 187°
2026-04-26 23:55 32.85633 -117.28526 859 ft 95 kts 198°
2026-04-26 23:55 32.84993 -117.28672 766 ft 92 kts 195°
2026-04-26 23:55 32.84379 -117.28763 796 ft 89 kts 192°
2026-04-26 23:55 32.83740 -117.28743 753 ft 95 kts 181°
2026-04-26 23:56 32.83063 -117.28561 690 ft 103 kts 176°
2026-04-26 23:56 32.82362 -117.28425 601 ft 101 kts 174°
2026-04-26 23:56 32.81733 -117.28013 484 ft 105 kts 148°
2026-04-26 23:56 32.81144 -117.27561 396 ft 97 kts 153°
2026-04-26 23:57 32.80583 -117.27156 290 ft 94 kts 156°
2026-04-26 23:57 32.80022 -117.26781 269 ft 91 kts 158°
2026-04-26 23:57 32.79449 -117.26434 219 ft 95 kts 161°
2026-04-26 23:57 32.78843 -117.26177 268 ft 90 kts 172°
2026-04-26 23:58 32.78231 -117.26049 337 ft 93 kts 179°
2026-04-26 23:58 32.77582 -117.25977 362 ft 93 kts 184°
2026-04-26 23:58 32.76933 -117.25997 406 ft 93 kts 187°
2026-04-26 23:58 32.76301 -117.25993 447 ft 94 kts 186°
2026-04-26 23:59 32.75610 -117.25967 433 ft 102 kts 192°
2026-04-26 23:59 32.74912 -117.26014 399 ft 98 kts 191°
2026-04-26 23:59 32.74260 -117.26070 421 ft 93 kts 191°
2026-04-26 23:59 32.73624 -117.26128 423 ft 90 kts 194°
2026-04-27 00:00 32.72998 -117.26160 440 ft 92 kts 188°
2026-04-27 00:00 32.72366 -117.26136 432 ft 89 kts 189°
2026-04-27 00:00 32.71764 -117.26152 425 ft 86 kts 187°
2026-04-27 00:00 32.71170 -117.26166 460 ft 86 kts 188°
2026-04-27 00:01 32.70561 -117.26160 483 ft 91 kts 180°
2026-04-27 00:01 32.69926 -117.25987 501 ft 98 kts 175°
2026-04-27 00:01 32.69286 -117.25808 547 ft 95 kts 174°
2026-04-27 00:01 32.68639 -117.25618 545 ft 95 kts 180°
2026-04-27 00:02 32.67996 -117.25669 599 ft 91 kts 206°
2026-04-27 00:02 32.67597 -117.26114 668 ft 71 kts 266°
2026-04-27 00:02 32.67836 -117.26545 638 ft 73 kts 339°
2026-04-27 00:02 32.68361 -117.26359 626 ft 92 kts 41°
2026-04-27 00:03 32.68449 -117.25623 669 ft 93 kts 126°
2026-04-27 00:03 32.67904 -117.25443 626 ft 87 kts 210°
2026-04-27 00:03 32.67548 -117.25892 598 ft 68 kts 262°
2026-04-27 00:03 32.67457 -117.26404 579 ft 61 kts 270°
2026-04-27 00:04 32.67633 -117.26859 571 ft 67 kts 318°
2026-04-27 00:04 32.68105 -117.26852 627 ft 81 kts 27°
2026-04-27 00:04 32.68220 -117.26174 675 ft 98 kts 122°
2026-04-27 00:04 32.67650 -117.25788 716 ft 97 kts 167°
2026-04-27 00:05 32.67018 -117.25525 741 ft 88 kts 176°
2026-04-27 00:05 32.66649 -117.25867 767 ft 70 kts 282°
2026-04-27 00:05 32.67084 -117.26112 694 ft 89 kts
2026-04-27 00:05 32.67713 -117.25975 576 ft 91 kts
2026-04-27 00:06 32.68311 -117.25784 557 ft 87 kts 358°
2026-04-27 00:06 32.68913 -117.25790 483 ft 85 kts 346°
2026-04-27 00:06 32.69463 -117.25893 437 ft 78 kts 348°
2026-04-27 00:06 32.70003 -117.25936 448 ft 74 kts 328°
2026-04-27 00:07 32.70197 -117.26428 430 ft 71 kts 271°
2026-04-27 00:07 32.69951 -117.26912 413 ft 84 kts 203°
2026-04-27 00:07 32.69422 -117.26574 334 ft 102 kts 113°
2026-04-27 00:07 32.69609 -117.25879 305 ft 89 kts 13°
2026-04-27 00:08 32.70200 -117.25840 326 ft 86 kts 347°
2026-04-27 00:08 32.70783 -117.25945 350 ft 87 kts 337°
2026-04-27 00:08 32.71386 -117.26077 420 ft 93 kts 355°
2026-04-27 00:08 32.72025 -117.26079 430 ft 88 kts 351°
2026-04-27 00:09 32.72627 -117.26052 411 ft 86 kts 357°
2026-04-27 00:09 32.73218 -117.26028 411 ft 85 kts 358°
2026-04-27 00:09 32.73817 -117.25974 399 ft 89 kts 359°
2026-04-27 00:09 32.74435 -117.26024 336 ft 87 kts 341°
2026-04-27 00:10 32.74996 -117.26175 343 ft 83 kts 354°
2026-04-27 00:10 32.75568 -117.26164 313 ft 81 kts 352°
2026-04-27 00:10 32.76133 -117.26084 356 ft 82 kts
2026-04-27 00:10 32.76708 -117.25964 340 ft 84 kts
2026-04-27 00:11 32.77267 -117.25963 370 ft 79 kts 347°
2026-04-27 00:11 32.77810 -117.26067 409 ft 78 kts 348°
2026-04-27 00:11 32.78341 -117.26155 417 ft 76 kts 342°
2026-04-27 00:11 32.78870 -117.26334 414 ft 79 kts 339°
2026-04-27 00:12 32.79377 -117.26518 409 ft 75 kts 336°
2026-04-27 00:12 32.79867 -117.26754 410 ft 76 kts 329°
2026-04-27 00:12 32.80303 -117.27093 434 ft 74 kts 316°
2026-04-27 00:12 32.80707 -117.27467 442 ft 75 kts 317°
2026-04-27 00:13 32.81144 -117.27795 466 ft 74 kts 328°
2026-04-27 00:13 32.81580 -117.28118 543 ft 76 kts 320°
2026-04-27 00:13 32.82016 -117.28524 702 ft 82 kts 318°
2026-04-27 00:13 32.82505 -117.28899 895 ft 86 kts 333°
2026-04-27 00:14 32.83120 -117.28948 1028 ft 92 kts 356°
2026-04-27 00:14 32.83773 -117.28878 1166 ft 97 kts 360°
2026-04-27 00:14 32.84437 -117.28668 1271 ft 103 kts 15°
2026-04-27 00:14 32.85119 -117.28295 1338 ft 108 kts 21°
2026-04-27 00:15 32.85757 -117.27813 1444 ft 107 kts 36°
2026-04-27 00:15 32.86098 -117.27088 1572 ft 105 kts 82°
2026-04-27 00:15 32.85935 -117.26241 1713 ft 107 kts 118°
2026-04-27 00:15 32.85505 -117.25501 1815 ft 110 kts 135°
2026-04-27 00:16 32.84990 -117.24813 1941 ft 110 kts 136°
2026-04-27 00:16 32.84470 -117.24112 2005 ft 116 kts 137°
2026-04-27 00:16 32.83990 -117.23351 2114 ft 112 kts 128°
2026-04-27 00:16 32.83572 -117.22611 2289 ft 107 kts 129°
2026-04-27 00:17 32.83086 -117.21903 2355 ft 114 kts 135°
2026-04-27 00:17 32.82516 -117.21192 2361 ft 121 kts 139°
2026-04-27 00:17 32.81921 -117.20509 2371 ft 118 kts 142°
2026-04-27 00:17 32.81313 -117.19860 2352 ft 115 kts 141°
2026-04-27 00:18 32.80687 -117.19450 2401 ft 95 kts 182°
2026-04-27 00:18 32.80117 -117.19688 2358 ft 83 kts 233°
2026-04-27 00:18 32.79938 -117.20317 2352 ft 82 kts 274°
2026-04-27 00:18 32.80015 -117.20755 2368 ft 82 kts 285°
2026-04-27 00:19 32.80308 -117.21316 2410 ft 82 kts 321°
2026-04-27 00:19 32.80902 -117.21369 2426 ft 92 kts 360°
2026-04-27 00:19 32.81538 -117.21244 2366 ft 94 kts
2026-04-27 00:19 32.82143 -117.20980 2367 ft 91 kts 12°
2026-04-27 00:20 32.82625 -117.21163 2370 ft 72 kts 299°
2026-04-27 00:20 32.82561 -117.21749 2258 ft 86 kts 231°
2026-04-27 00:20 32.81942 -117.21854 2151 ft 104 kts 168°
2026-04-27 00:20 32.81249 -117.21531 1991 ft 107 kts 165°
2026-04-27 00:21 32.80537 -117.21246 1819 ft 107 kts 174°
2026-04-27 00:21 32.79812 -117.21049 1679 ft 105 kts 175°
2026-04-27 00:21 32.79121 -117.20863 1552 ft 101 kts 178°
2026-04-27 00:21 32.78442 -117.20701 1519 ft 98 kts 177°
2026-04-27 00:22 32.77758 -117.20570 1403 ft 100 kts 179°
2026-04-27 00:22 32.77086 -117.20318 1303 ft 102 kts 161°
2026-04-27 00:22 32.76440 -117.19953 1179 ft 103 kts 161°
2026-04-27 00:22 32.75789 -117.19622 1105 ft 100 kts 161°
2026-04-27 00:23 32.75244 -117.19089 1056 ft 105 kts 126°
2026-04-27 00:23 32.74902 -117.18358 1046 ft 101 kts 116°
2026-04-27 00:23 32.74620 -117.17616 1070 ft 99 kts 114°
2026-04-27 00:23 32.74303 -117.16840 985 ft 108 kts 118°
2026-04-27 00:24 32.73976 -117.16078 1044 ft 99 kts 120°
2026-04-27 00:24 32.73530 -117.15560 972 ft 85 kts 193°
2026-04-27 00:24 32.73101 -117.15967 821 ft 90 kts 245°
2026-04-27 00:24 32.72856 -117.16599 557 ft 82 kts 259°
2026-04-27 00:25 32.72911 -117.17137 306 ft 62 kts 287°
2026-04-27 00:25 32.73049 -117.17704 104 ft 77 kts 285°
2026-04-27 00:25 32.73185 -117.18264 21 ft 55 kts 285°
2026-04-27 00:25 32.73265 -117.18600 16 ft 50 kts 285°
2026-04-27 00:26 32.73374 -117.19078 183 ft 63 kts 285°
2026-04-27 00:26 32.73472 -117.19597 404 ft 67 kts 279°
2026-04-27 00:26 32.73584 -117.20139 680 ft 69 kts 300°
2026-04-27 00:26 32.74053 -117.20355 924 ft 84 kts
2026-04-27 00:27 32.74584 -117.19960 1138 ft 93 kts 36°
2026-04-27 00:27 32.74700 -117.19198 1285 ft 105 kts 105°
2026-04-27 00:27 32.74473 -117.18334 1307 ft 112 kts 103°
2026-04-27 00:27 32.74289 -117.17447 1409 ft 114 kts 103°
2026-04-27 00:28 32.74084 -117.16522 1388 ft 113 kts 108°
2026-04-27 00:28 32.73837 -117.15676 1297 ft 110 kts 110°
2026-04-27 00:28 32.73554 -117.14834 1219 ft 108 kts 112°
2026-04-27 00:28 32.73350 -117.14003 1218 ft 103 kts 96°
2026-04-27 00:29 32.73234 -117.13209 1306 ft 92 kts 125°
2026-04-27 00:29 32.72695 -117.12993 1321 ft 89 kts 211°
2026-04-27 00:29 32.72293 -117.13604 1263 ft 100 kts 248°
2026-04-27 00:29 32.72194 -117.14424 1121 ft 104 kts 284°
2026-04-27 00:30 32.72418 -117.15235 967 ft 103 kts 289°
2026-04-27 00:30 32.72635 -117.16050 740 ft 103 kts 284°
2026-04-27 00:30 32.72836 -117.16836 480 ft 97 kts 287°
2026-04-27 00:30 32.73014 -117.17572 219 ft 92 kts 285°
2026-04-27 00:31 32.73181 -117.18247 51 ft 70 kts 285°
2026-04-27 00:31 32.73279 -117.18652 16 ft 36 kts 286°
2026-04-27 00:31 32.73378 -117.19081 112 ft 62 kts 284°
2026-04-27 00:31 32.73487 -117.19588 333 ft 65 kts 285°
2026-04-27 00:32 32.73617 -117.20145 546 ft 73 kts 282°
2026-04-27 00:32 32.73932 -117.20591 834 ft 80 kts 339°
2026-04-27 00:32 32.74503 -117.20385 985 ft 99 kts 31°
2026-04-27 00:32 32.74796 -117.19703 1245 ft 104 kts 102°
2026-04-27 00:33 32.74560 -117.18842 1258 ft 113 kts 108°
2026-04-27 00:33 32.74317 -117.17965 1193 ft 110 kts 112°
2026-04-27 00:33 32.73994 -117.17172 1188 ft 106 kts 116°
2026-04-27 00:33 32.73688 -117.16356 1107 ft 110 kts 117°
2026-04-27 00:34 32.73348 -117.15560 1012 ft 105 kts 149°
2026-04-27 00:34 32.72814 -117.15755 881 ft 94 kts 246°
2026-04-27 00:34 32.72766 -117.16547 522 ft 102 kts 282°
2026-04-27 00:34 32.72941 -117.17288 284 ft 85 kts 287°
2026-04-27 00:35 32.73102 -117.17928 105 ft 75 kts 286°
2026-04-27 00:35 32.73246 -117.18527 162 ft 78 kts 286°
2026-04-27 00:35 32.73417 -117.19141 403 ft 78 kts 287°
2026-04-27 00:35 32.73602 -117.19770 578 ft 82 kts 288°
2026-04-27 00:36 32.73956 -117.20258 826 ft 85 kts 339°
2026-04-27 00:36 32.74562 -117.20051 971 ft 103 kts 36°
2026-04-27 00:36 32.74667 -117.19220 1139 ft 117 kts 110°
2026-04-27 00:36 32.74354 -117.18281 1118 ft 121 kts 113°
2026-04-27 00:37 32.74029 -117.17391 1087 ft 113 kts 114°
2026-04-27 00:37 32.73784 -117.16539 1086 ft 103 kts 105°
2026-04-27 00:37 32.73567 -117.15755 1062 ft 98 kts 108°
2026-04-27 00:37 32.73358 -117.14947 960 ft 108 kts 105°
2026-04-27 00:38 32.73184 -117.14086 1085 ft 108 kts 99°
2026-04-27 00:38 32.72865 -117.13362 1262 ft 98 kts 175°
2026-04-27 00:38 32.72359 -117.13742 1217 ft 95 kts 240°
2026-04-27 00:38 32.72264 -117.14552 1035 ft 108 kts 284°
2026-04-27 00:39 32.72482 -117.15372 846 ft 100 kts 288°
2026-04-27 00:39 32.72660 -117.16128 597 ft 92 kts 285°
2026-04-27 00:39 32.72841 -117.16850 370 ft 92 kts 286°
2026-04-27 00:39 32.72997 -117.17546 173 ft 85 kts 281°
2026-04-27 00:40 32.73148 -117.18112 62 ft 55 kts 285°
2026-04-27 00:40 32.73236 -117.18480 16 ft 37 kts 286°
2026-04-27 00:40 32.73288 -117.18692 16 ft 21 kts 286°
2026-04-27 00:40 32.73348 -117.18816 16 ft 15 kts 334°
2026-04-27 00:41 32.73421 -117.18775 17 ft 9 kts 81°
2026-04-27 00:41 32.73407 -117.18702 16 ft 11 kts 106°
2026-04-27 00:41 32.73381 -117.18594 16 ft 17 kts 106°
2026-04-27 00:41 32.73344 -117.18443 16 ft 20 kts 107°
2026-04-27 00:42 32.73308 -117.18293 16 ft 18 kts 106°
2026-04-27 00:42 32.73274 -117.18156 16 ft 17 kts 107°
2026-04-27 00:42 32.73244 -117.18029 16 ft 15 kts 107°
2026-04-27 00:42 32.73211 -117.17895 16 ft 17 kts 105°
2026-04-27 00:43 32.73179 -117.17764 16 ft 16 kts 105°
2026-04-27 00:43 32.73157 -117.17667 16 ft 8 kts 105°
2026-04-27 00:43 32.73141 -117.17605 16 ft 8 kts 106°
2026-04-27 00:43 32.73099 -117.17555 16 ft 6 kts 144°
2026-04-27 00:44 32.73048 -117.17527 16 ft 12 kts 183°
2026-04-27 00:44 32.73034 -117.17642 16 ft 36 kts 286°
2026-04-27 00:44 32.73138 -117.18098 97 ft 68 kts 284°
2026-04-27 00:44 32.73257 -117.18639 358 ft 66 kts 283°
2026-04-27 00:45 32.73387 -117.19167 580 ft 66 kts 286°